Yankton, SD

10:02 PM CST on December 06, 2019 (GMT -0600)
Gurney Municipal

Weather History for KYKN - October, 2019

Change the Weather History Date:

Saturday, October 19, 2019

  Actual Average Record
Temperature  
Mean Temperature 54 °F -  
Max Temperature 64 °F 58 °F 87 °F (2003)
Min Temperature 43 °F 34 °F 14 °F (1972)
Degree Days  
Heating Degree Days 12    
Growing Degree Days 4 (Base 50)    
Moisture  
Dew Point 39 °F    
Average Humidity 60    
Maximum Humidity 85    
Minimum Humidity 36    
Precipitation  
Precipitation 0.00 in - - ()
Sea Level Pressure  
Sea Level Pressure 29.79 in    
Wind  
Wind Speed 7 mph (West)    
Max Wind Speed 13 mph    
Max Gust Speed -    
Visibility 10 miles    
Events Rain    
Averages and records for this station are not official NWS values.
T = Trace of Precipitation, MM = Missing Value Source: NWS Daily Summary

Daily Weather History Graph

Daily Weather History Graph

Search for Another Location

Airport or City:

Astronomy

Oct. 19, 2019 Rise Set
Actual Time 7:47 AM CDT 6:40 PM CDT
Civil Twilight 7:18 AM CDT 7:09 PM CDT
Nautical Twilight 6:45 AM CDT 7:42 PM CDT
Astronomical Twilight 6:13 AM CDT 8:15 PM CDT
Moon 10:44 PM CDT (10/19) 1:27 PM CDT (10/19)
Length of Visible Light 11h 50m
Length of Day
10h 53m
Waning Gibbous, 69% of the Moon is Illuminated
Oct 19
Waning Gibbous
Oct 21
Last Quarter
Oct 27
New
Nov 4
First Quarter
Nov 12
Full

Hourly Weather History & Observations

Time (CDT) Temp. Windchill Dew Point Humidity Pressure Visibility Wind Dir Wind Speed Gust Speed Precip Events Conditions
12:56 AM 53.1 °F - 42.1 °F 66% 29.73 in 10.0 mi WNW 12.7 mph - 0.00 in Rain Light Rain
1:56 AM 53.1 °F - 42.1 °F 66% 29.74 in 10.0 mi West 9.2 mph - 0.00 in   Overcast
2:56 AM 52.0 °F - 41.0 °F 66% 29.75 in 10.0 mi West 9.2 mph - N/A   Mostly Cloudy
3:56 AM 50.0 °F - 41.0 °F 71% 29.74 in 10.0 mi WSW 4.6 mph - N/A   Clear
4:56 AM 48.0 °F - 39.9 °F 74% 29.76 in 10.0 mi West 6.9 mph - N/A   Clear
5:56 AM 46.0 °F 43.1 °F 37.9 °F 73% 29.79 in 10.0 mi WSW 5.8 mph - N/A   Clear
6:56 AM 45.0 °F 41.8 °F 37.9 °F 76% 29.81 in 10.0 mi SW 5.8 mph - N/A   Clear
7:56 AM 43.0 °F - 37.0 °F 80% 29.82 in 10.0 mi Calm Calm - N/A   Clear
8:56 AM 44.1 °F - 39.9 °F 85% 29.83 in 10.0 mi Calm Calm - N/A   Clear
9:56 AM 53.1 °F - 39.9 °F 61% 29.83 in 10.0 mi West 6.9 mph - N/A   Clear
10:56 AM 55.0 °F - 37.9 °F 53% 29.83 in 10.0 mi WSW 10.4 mph - N/A   Clear
11:56 AM 57.9 °F - 39.0 °F 49% 29.84 in 10.0 mi WNW 11.5 mph - N/A   Clear
12:56 PM 61.0 °F - 41.0 °F 48% 29.83 in 10.0 mi NW 8.1 mph - N/A   Clear
1:56 PM 63.0 °F - 37.0 °F 38% 29.80 in 10.0 mi NW 9.2 mph - N/A   Clear
2:56 PM 64.0 °F - 37.9 °F 38% 29.78 in 10.0 mi NW 8.1 mph - N/A   Clear
3:56 PM 64.9 °F - 37.0 °F 36% 29.77 in 10.0 mi Variable 3.5 mph - N/A   Clear
4:56 PM 64.0 °F - 37.0 °F 37% 29.77 in 10.0 mi SW 6.9 mph - N/A   Clear
5:56 PM 61.0 °F - 35.1 °F 38% 29.78 in 10.0 mi WSW 4.6 mph - N/A   Clear
6:56 PM 57.9 °F - 37.0 °F 46% 29.79 in 10.0 mi WNW 3.5 mph - N/A   Scattered Clouds
7:56 PM 48.9 °F - 39.0 °F 69% 29.81 in 10.0 mi North 3.5 mph - N/A   Clear
8:56 PM 48.9 °F - 37.9 °F 66% 29.80 in 10.0 mi ENE 3.5 mph - N/A   Clear
9:56 PM 48.9 °F - 37.9 °F 66% 29.79 in 10.0 mi East 3.5 mph - N/A   Mostly Cloudy
10:56 PM 46.0 °F - 37.9 °F 73% 29.79 in 10.0 mi Calm Calm - N/A   Clear
11:56 PM 43.0 °F 40.3 °F 36.0 °F 76% 29.79 in 10.0 mi East 4.6 mph - N/A   Clear